timestamp,wind_dir_avg,wind_spd_avg,wind_spd_max_dir,wind_spd_gust,battery_voltage,lat,long
2023-02-05 14:14:01+00:00,258.0,6.76,250.0,8.34,12.01,47.59359,-54.27349
2023-02-05 14:24:01+00:00,280.0,6.88,281.0,7.84,12.01,47.59359,-54.27349
2023-02-05 14:34:01+00:00,274.0,6.22,269.0,7.88,12.01,47.59359,-54.27349
2023-02-05 14:44:01+00:00,279.0,8.13,279.0,9.02,12.01,47.59359,-54.27349
2023-02-05 14:54:01+00:00,277.0,7.48,275.0,8.16,12.01,47.59359,-54.27349
2023-02-05 15:04:01+00:00,280.0,9.07,285.0,13.95,12.01,47.59359,-54.27349
2023-02-05 15:14:00+00:00,268.0,7.26,260.0,8.19,12.01,47.59359,-54.27349
2023-02-05 15:24:00+00:00,289.0,7.29,290.0,8.55,12.01,47.59359,-54.27349
2023-02-05 15:34:00+00:00,294.0,8.3,300.0,9.65,12.01,47.59359,-54.27349
2023-02-05 15:44:00+00:00,290.0,7.27,289.0,9.41,12.01,47.59359,-54.27349
2023-02-05 15:54:00+00:00,269.0,12.47,267.0,15.56,12.01,47.59359,-54.27349
2023-02-05 16:04:00+00:00,265.0,12.34,269.0,14.26,12.01,47.59359,-54.27349
2023-02-05 16:14:00+00:00,271.0,12.69,273.0,14.59,12.09,47.59359,-54.27349
2023-02-05 16:24:00+00:00,270.0,11.47,270.0,14.5,12.09,47.59359,-54.27349
2023-02-05 16:34:00+00:00,269.0,12.68,275.0,14.35,12.09,47.59359,-54.27349
2023-02-05 16:44:00+00:00,280.0,13.81,284.0,15.4,12.09,47.59359,-54.27349
2023-02-05 16:54:00+00:00,281.0,13.43,289.0,15.54,12.09,47.59359,-54.27349
2023-02-05 17:04:00+00:00,280.0,13.04,280.0,14.45,12.09,47.59359,-54.27349
2023-02-05 17:14:00+00:00,282.0,13.26,285.0,14.65,12.33,47.59359,-54.27349
2023-02-05 17:24:00+00:00,276.0,10.87,279.0,14.24,12.33,47.59359,-54.27349
2023-02-05 17:34:00+00:00,275.0,11.11,283.0,14.12,12.33,47.59359,-54.27349
2023-02-05 17:44:00+00:00,286.0,8.97,279.0,13.35,12.33,47.59359,-54.27349
2023-02-05 17:54:00+00:00,277.0,8.1,277.0,12.0,12.33,47.59359,-54.27349
2023-02-05 18:04:00+00:00,260.0,8.33,262.0,11.72,12.33,47.59359,-54.27349
2023-02-05 18:14:00+00:00,268.0,7.86,263.0,12.16,12.09,47.59359,-54.27349
2023-02-05 18:24:00+00:00,266.0,7.43,272.0,8.42,12.09,47.59359,-54.27349
2023-02-05 18:34:00+00:00,256.0,12.19,259.0,14.19,12.09,47.59359,-54.27349
2023-02-05 18:44:00+00:00,259.0,13.05,262.0,17.7,12.09,47.59359,-54.27349
2023-02-05 18:54:00+00:00,251.0,11.08,252.0,14.33,12.09,47.59359,-54.27349
2023-02-05 19:04:00+00:00,256.0,13.38,254.0,14.82,12.09,47.59359,-54.27349
2023-02-05 19:14:00+00:00,256.0,11.91,248.0,13.65,12.01,47.59359,-54.27349
2023-02-05 19:24:00+00:00,261.0,11.8,261.0,14.34,12.01,47.59359,-54.27349
2023-02-05 19:34:00+00:00,272.0,11.66,279.0,13.13,12.01,47.59359,-54.27349
2023-02-05 19:44:00+00:00,263.0,12.12,263.0,14.41,12.01,47.59359,-54.27349
2023-02-05 19:54:00+00:00,255.0,11.43,259.0,14.31,12.01,47.59359,-54.27349
2023-02-05 20:04:00+00:00,252.0,11.61,261.0,14.42,12.01,47.59359,-54.27349
2023-02-05 20:14:00+00:00,259.0,12.93,260.0,14.64,12.01,47.59359,-54.27349
2023-02-05 20:24:00+00:00,257.0,12.19,256.0,14.67,12.01,47.59359,-54.27349
2023-02-05 20:34:00+00:00,259.0,12.32,259.0,14.16,12.01,47.59359,-54.27349
2023-02-05 20:44:00+00:00,245.0,12.61,247.0,14.75,12.01,47.59359,-54.27349
2023-02-05 20:54:00+00:00,242.0,12.86,244.0,15.62,12.01,47.59359,-54.27349
2023-02-05 21:04:00+00:00,248.0,13.08,249.0,14.91,12.01,47.59359,-54.27349
2023-02-05 23:14:00+00:00,235.0,11.14,238.0,15.73,12.01,47.59359,-54.27349
2023-02-05 23:24:00+00:00,233.0,11.24,237.0,14.02,12.01,47.59359,-54.27349
2023-02-05 23:34:00+00:00,228.0,12.77,233.0,15.73,12.01,47.59359,-54.27349
2023-02-05 23:44:00+00:00,227.0,10.85,228.0,14.97,12.01,47.59359,-54.27349
2023-02-05 23:54:00+00:00,231.0,11.68,235.0,14.54,12.01,47.59359,-54.27349
